Total_Precipitation_Accumulation
0.48 0.47 0.45 0.43 0.42 0.42 0.44 0.45 0.49 0.51 0.52 0.54 0.56 0.58 0.61 0.64 0.67 0.69 0.74 0.81 0.84 0.87 0.88 0.94 0.97 1.01 0.94 0.82 0.79 0.83 0.91 0.94 0.83 0.96 0.94 0.68 0.49 0.36 0.30 0.23 0.17 0.14 0.12
0.46 0.46 0.46 0.43 0.39 0.38 0.38 0.37 0.39 0.42 0.44 0.45 0.47 0.48 0.53 0.58 0.63 0.70 0.77 0.82 0.83 0.82 0.82 0.87 0.86 0.82 0.81 0.75 0.65 0.62 0.72 0.81 0.80 0.85 1.00 0.90 0.60 0.42 0.36 0.30 0.21 0.16 0.18
0.46 0.45 0.42 0.42 0.42 0.38 0.32 0.29 0.29 0.31 0.36 0.35 0.33 0.35 0.40 0.49 0.58 0.64 0.67 0.70 0.78 0.84 0.80 0.77 0.73 0.69 0.76 0.80 0.70 0.65 0.66 0.74 0.77 0.77 0.91 0.97 0.73 0.51 0.46 0.41 0.34 0.35 0.22
0.42 0.41 0.38 0.36 0.36 0.37 0.34 0.29 0.26 0.25 0.27 0.29 0.30 0.34 0.37 0.43 0.50 0.53 0.52 0.51 0.54 0.61 0.61 0.59 0.56 0.54 0.60 0.71 0.68 0.68 0.66 0.62 0.69 0.74 0.82 0.89 0.86 0.68 0.64 0.57 0.50 0.48 0.41
0.44 0.40 0.39 0.38 0.34 0.31 0.28 0.24 0.21 0.18 0.17 0.18 0.21 0.27 0.32 0.35 0.35 0.35 0.37 0.33 0.33 0.31 0.32 0.35 0.35 0.34 0.32 0.36 0.45 0.56 0.61 0.61 0.64 0.70 0.76 0.82 0.81 0.73 0.64 0.63 0.61 0.64 0.63
0.34 0.32 0.35 0.35 0.33 0.32 0.26 0.20 0.16 0.13 0.12 0.13 0.14 0.16 0.18 0.21 0.25 0.25 0.24 0.22 0.16 0.14 0.14 0.14 0.14 0.15 0.17 0.22 0.24 0.29 0.36 0.48 0.63 0.75 0.77 0.80 0.83 0.81 0.77 0.72 0.72 0.72 0.75
0.26 0.28 0.30 0.33 0.35 0.32 0.23 0.18 0.14 0.10 0.09 0.10 0.12 0.11 0.11 0.13 0.15 0.17 0.20 0.16 0.10 0.09 0.08 0.07 0.05 0.04 0.05 0.09 0.12 0.12 0.15 0.17 0.25 0.50 0.68 0.69 0.67 0.71 0.78 0.85 0.86 0.90 0.97
0.29 0.33 0.33 0.32 0.34 0.33 0.25 0.20 0.15 0.12 0.10 0.10 0.11 0.10 0.07 0.06 0.08 0.10 0.11 0.10 0.10 0.09 0.06 0.05 0.03 0.02 0.01 0.02 0.05 0.09 0.06 0.04 0.05 0.14 0.22 0.26 0.32 0.42 0.57 0.75 0.90 1.00 1.14
0.33 0.36 0.36 0.34 0.33 0.32 0.29 0.26 0.23 0.20 0.15 0.10 0.12 0.12 0.09 0.05 0.05 0.06 0.07 0.07 0.08 0.08 0.04 0.03 0.02 0.01 0.01 0.00 0.02 0.05 0.04 0.02 0.01 0.01 0.04 0.07 0.11 0.16 0.24 0.40 0.57 0.80 1.11
0.31 0.31 0.29 0.30 0.33 0.34 0.34 0.32 0.29 0.25 0.17 0.11 0.11 0.11 0.10 0.06 0.03 0.03 0.02 0.04 0.06 0.06 0.03 0.02 0.01 0.01 0.00 0.00 0.01 0.02 0.02 0.01 0.01 0.01 0.02 0.02 0.02 0.03 0.06 0.14 0.26 0.44 0.72
0.30 0.29 0.29 0.29 0.32 0.35 0.39 0.37 0.34 0.27 0.20 0.15 0.13 0.11 0.10 0.05 0.01 0.01 0.01 0.03 0.03 0.03 0.02 0.02 0.01 0.00 0.00 0.00 0.00 0.00 0.00 0.00 0.01 0.01 0.02 0.03 0.02 0.02 0.02 0.04 0.08 0.16 0.29
0.31 0.31 0.30 0.33 0.27 0.27 0.37 0.40 0.39 0.33 0.22 0.16 0.14 0.11 0.09 0.06 0.02 0.00 0.01 0.01 0.01 0.02 0.01 0.01 0.01 0.00 0.00 0.00 0.00 0.00 0.00 0.00 0.00 0.01 0.01 0.02 0.02 0.01 0.01 0.01 0.04 0.08 0.14
0.38 0.40 0.40 0.38 0.36 0.36 0.39 0.40 0.39 0.33 0.24 0.16 0.12 0.11 0.09 0.07 0.04 0.01 0.00 0.00 0.00 0.01 0.01 0.00 0.00 0.00 0.00 0.00 0.00 0.00 0.00 0.00 0.00 0.00 0.01 0.01 0.01 0.01 0.01 0.02 0.03 0.05 0.07
0.43 0.44 0.48 0.49 0.47 0.46 0.48 0.47 0.42 0.37 0.27 0.17 0.13 0.10 0.08 0.06 0.04 0.04 0.03 0.02 0.01 0.01 0.01 0.01 0.00 0.00 0.00 0.00 0.00 0.00 0.00 0.00 0.00 0.01 0.02 0.02 0.02 0.02 0.02 0.02 0.02 0.04 0.05
0.45 0.44 0.47 0.53 0.58 0.57 0.55 0.52 0.47 0.44 0.31 0.22 0.17 0.12 0.09 0.05 0.02 0.02 0.02 0.02 0.02 0.01 0.01 0.01 0.01 0.01 0.01 0.01 0.00 0.00 0.00 0.00 0.00 0.01 0.01 0.02 0.02 0.03 0.04 0.04 0.04 0.04 0.05
0.48 0.47 0.46 0.48 0.52 0.52 0.51 0.40 0.33 0.32 0.22 0.14 0.11 0.08 0.05 0.03 0.01 0.01 0.01 0.01 0.01 0.01 0.01 0.03 0.04 0.04 0.03 0.02 0.01 0.01 0.01 0.01 0.01 0.01 0.01 0.01 0.02 0.02 0.04 0.06 0.06 0.06 0.08
0.46 0.46 0.45 0.46 0.49 0.49 0.47 0.41 0.32 0.24 0.19 0.14 0.09 0.05 0.03 0.02 0.01 0.00 0.00 0.01 0.01 0.01 0.01 0.03 0.05 0.05 0.04 0.03 0.03 0.02 0.02 0.02 0.02 0.01 0.02 0.02 0.02 0.02 0.03 0.05 0.05 0.06 0.08
0.40 0.40 0.40 0.42 0.44 0.44 0.43 0.41 0.35 0.27 0.18 0.12 0.09 0.07 0.04 0.02 0.01 0.00 0.00 0.00 0.00 0.00 0.00 0.01 0.03 0.03 0.03 0.03 0.03 0.02 0.02 0.02 0.02 0.02 0.02 0.03 0.03 0.03 0.03 0.04 0.05 0.07 0.09
0.39 0.41 0.40 0.38 0.39 0.37 0.38 0.37 0.33 0.27 0.19 0.14 0.10 0.07 0.06 0.03 0.02 0.01 0.00 0.00 0.00 0.00 0.00 0.00 0.00 0.01 0.01 0.01 0.01 0.01 0.01 0.01 0.02 0.02 0.02 0.03 0.03 0.03 0.05 0.06 0.06 0.06 0.07
0.44 0.42 0.44 0.42 0.38 0.36 0.34 0.34 0.30 0.25 0.18 0.13 0.11 0.07 0.05 0.02 0.01 0.00 0.00 0.00 0.00 0.00 0.00 0.00 0.00 0.00 0.00 0.00 0.00 0.00 0.00 0.01 0.01 0.01 0.01 0.01 0.01 0.02 0.03 0.05 0.06 0.07 0.07
0.47 0.42 0.40 0.39 0.37 0.36 0.34 0.32 0.29 0.23 0.17 0.12 0.09 0.06 0.04 0.02 0.01 0.01 0.00 0.00 0.00 0.00 0.00 0.00 0.00 0.00 0.00 0.00 0.00 0.00 0.00 0.00 0.00 0.00 0.00 0.00 0.00 0.01 0.01 0.02 0.03 0.04 0.05
0.51 0.46 0.39 0.34 0.34 0.35 0.34 0.30 0.28 0.21 0.14 0.12 0.09 0.08 0.05 0.02 0.01 0.01 0.00 0.00 0.00 0.00 0.00 0.00 0.00 0.00 0.00 0.00 0.00 0.00 0.00 0.00 0.00 0.00 0.00 0.00 0.00 0.00 0.01 0.01 0.03 0.04 0.04
0.50 0.50 0.46 0.36 0.30 0.30 0.30 0.28 0.24 0.20 0.14 0.11 0.09 0.07 0.04 0.02 0.01 0.00 0.00 0.00 0.00 0.00 0.00 0.00 0.00 0.00 0.00 0.00 0.00 0.00 0.00 0.00 0.00 0.00 0.00 0.00 0.00 0.00 0.01 0.02 0.03 0.04 0.05
0.44 0.47 0.46 0.39 0.29 0.24 0.23 0.22 0.20 0.17 0.14 0.10 0.07 0.04 0.03 0.02 0.01 0.01 0.00 0.00 0.00 0.00 0.00 0.00 0.00 0.00 0.00 0.01 0.01 0.01 0.01 0.01 0.00 0.00 0.01 0.00 0.01 0.01 0.01 0.02 0.03 0.04 0.07
0.42 0.42 0.43 0.39 0.31 0.23 0.20 0.19 0.18 0.15 0.11 0.08 0.05 0.03 0.02 0.02 0.01 0.01 0.00 0.00 0.00 0.00 0.00 0.00 0.01 0.01 0.01 0.01 0.03 0.04 0.01 0.00 0.00 0.00 0.00 0.00 0.01 0.01 0.02 0.03 0.04 0.05 0.07
0.41 0.39 0.38 0.35 0.29 0.22 0.18 0.17 0.17 0.13 0.09 0.06 0.03 0.02 0.01 0.01 0.01 0.01 0.01 0.01 0.01 0.01 0.02 0.02 0.02 0.02 0.02 0.04 0.05 0.03 0.01 0.01 0.00 0.00 0.00 0.00 0.00 0.01 0.02 0.02 0.02 0.03 0.04